Location: La Brionne
(46.1728°N, 1.7849°E)
Time: 12:54:57
(UTC+00:00)

CUTE-I - Visible Passes

Search period start: 27 March 2023 00:00
Search period end: 06 April 2023 00:00
Orbit: 809 x 823 km, 98.7° (Epoch: 26 March)

Date Brightness Start Highest point End Pass type
(mag) Time Alt. Az. Time Alt. Az. Time Alt. Az.
27 Mar ? 04:52:39 10° NE 04:55:37 15° E 04:58:34 10° ESE visible
29 Mar ? 18:54:54 10° WSW 18:57:20 13° W 18:59:47 10° WNW visible
31 Mar ? 05:04:26 10° NE 05:08:12 19° E 05:11:56 10° SE visible
01 Apr ? 04:43:57 10° ENE 04:45:59 12° E 04:48:01 10° ESE visible
05 Apr ? 04:55:22 10° NE 04:58:33 16° E 05:01:44 10° SE visible
